Location: Camp at the Woods
(43.2055°N, 93.0905°W)
Time: 01:18:07
(UTC+00:00)

Cosmos 2227 Rocket - Pass Details

Date: 30 May 2025
Orbit: 837 x 844 km, 71.0° (Epoch: 12 June)

Event Time Altitude Azimuth Distance (km) Brightness Sun altitude
Exits shadow 08:30:59 - 270° (W) 2,549 4.4 -17.3°
Reaches altitude 10° 08:31:23 10° 273° (W) 2,455 4.3 -17.3°
Maximum altitude 08:35:00 17° 314° (NW) 1,999 4.2 -16.9°
Drops below altitude 10° 08:38:38 10° 354° (N) 2,466 5.3 -16.5°
Sets 08:42:00 0° 14° (NNE) 3,406 6.7 -16.2°
